Time,TemperatureF,DewpointF,PressureIn,WindDirection,WindDirectionDegrees,WindSpeedMPH,WindSpeedGustMPH,Humidity,HourlyPrecipIn,Conditions,Clouds,dailyrainin,SoftwareType,DateUTC
2013-01-30 00:03:00,70.0,69.7,29.93,SE,145,2.0,5.0,99,0.00,,,0.00,Wunderground v.1.13,2013-01-30 06:03:00,
2013-01-30 00:08:00,70.1,69.8,29.93,SSE,153,3.0,3.0,99,0.00,,,0.00,Wunderground v.1.13,2013-01-30 06:08:00,
2013-01-30 00:14:00,70.1,69.8,29.93,South,186,2.0,6.0,99,0.00,,,0.00,Wunderground v.1.13,2013-01-30 06:14:00,
2013-01-30 00:19:00,70.2,69.9,29.93,SSW,206,2.0,2.0,99,0.00,,,0.00,Wunderground v.1.13,2013-01-30 06:19:00,
2013-01-30 00:24:00,70.2,69.9,29.92,SSE,165,2.0,2.0,99,0.00,,,0.00,Wunderground v.1.13,2013-01-30 06:24:00,
2013-01-30 00:29:00,70.3,70.0,29.92,South,180,3.0,6.0,99,0.00,,,0.00,Wunderground v.1.13,2013-01-30 06:29:00,
2013-01-30 00:35:00,70.4,70.1,29.92,SSE,158,2.0,5.0,99,0.00,,,0.00,Wunderground v.1.13,2013-01-30 06:35:00,
2013-01-30 00:40:00,70.5,70.2,29.91,SSE,163,2.0,5.0,99,0.00,,,0.00,Wunderground v.1.13,2013-01-30 06:40:00,
2013-01-30 00:46:00,70.6,70.3,29.91,South,169,3.0,6.0,99,0.00,,,0.00,Wunderground v.1.13,2013-01-30 06:46:00,
2013-01-30 00:51:00,70.6,70.3,29.91,South,174,3.0,4.0,99,0.00,,,0.00,Wunderground v.1.13,2013-01-30 06:51:00,
2013-01-30 00:57:00,70.6,70.3,29.91,South,191,2.0,2.0,99,0.00,,,0.00,Wunderground v.1.13,2013-01-30 06:57:00,
2013-01-30 01:02:00,70.6,70.3,29.91,ESE,119,2.0,5.0,99,0.00,,,0.00,Wunderground v.1.13,2013-01-30 07:02:00,
2013-01-30 01:09:00,70.7,70.4,29.91,SSE,167,4.0,5.0,99,0.00,,,0.00,Wunderground v.1.13,2013-01-30 07:09:00,
2013-01-30 01:14:00,70.7,70.4,29.91,SSW,201,3.0,4.0,99,0.00,,,0.00,Wunderground v.1.13,2013-01-30 07:14:00,
2013-01-30 01:20:00,70.7,70.4,29.90,SW,215,3.0,7.0,99,0.00,,,0.00,Wunderground v.1.13,2013-01-30 07:20:00,
2013-01-30 01:25:00,70.7,70.4,29.90,South,175,3.0,3.0,99,0.00,,,0.00,Wunderground v.1.13,2013-01-30 07:25:00,
2013-01-30 01:30:00,70.7,70.4,29.90,South,172,3.0,5.0,99,0.00,,,0.00,Wunderground v.1.13,2013-01-30 07:30:00,
2013-01-30 01:35:00,70.8,70.5,29.90,South,187,3.0,7.0,99,0.00,,,0.00,Wunderground v.1.13,2013-01-30 07:35:00,
2013-01-30 01:41:00,70.8,70.5,29.90,East,98,3.0,5.0,99,0.00,,,0.00,Wunderground v.1.13,2013-01-30 07:41:00,
2013-01-30 01:46:00,70.8,70.5,29.90,South,173,2.0,2.0,99,0.00,,,0.00,Wunderground v.1.13,2013-01-30 07:46:00,
2013-01-30 01:51:00,70.8,70.5,29.90,South,187,2.0,2.0,99,0.00,,,0.00,Wunderground v.1.13,2013-01-30 07:51:00,
2013-01-30 01:56:00,70.8,70.5,29.90,South,182,2.0,2.0,99,0.00,,,0.00,Wunderground v.1.13,2013-01-30 07:56:00,
2013-01-30 02:02:00,70.8,70.5,29.89,SSE,166,3.0,10.0,99,0.00,,,0.00,Wunderground v.1.13,2013-01-30 08:02:00,
2013-01-30 02:07:00,70.9,70.6,29.90,South,172,3.0,5.0,99,0.00,,,0.00,Wunderground v.1.13,2013-01-30 08:07:00,
2013-01-30 02:12:00,70.9,70.6,29.90,SSW,192,3.0,5.0,99,0.00,,,0.00,Wunderground v.1.13,2013-01-30 08:12:00,
2013-01-30 02:18:00,70.9,70.6,29.89,SE,136,3.0,3.0,99,0.00,,,0.00,Wunderground v.1.13,2013-01-30 08:18:00,
2013-01-30 02:24:00,70.8,70.5,29.89,South,180,2.0,6.0,99,0.00,,,0.00,Wunderground v.1.13,2013-01-30 08:24:00,
2013-01-30 02:29:00,70.9,70.6,29.89,ESE,116,3.0,5.0,99,0.00,,,0.00,Wunderground v.1.13,2013-01-30 08:29:00,
2013-01-30 02:34:00,70.9,70.6,29.89,SSE,156,3.0,4.0,99,0.00,,,0.00,Wunderground v.1.13,2013-01-30 08:34:00,
2013-01-30 02:39:00,70.9,70.6,29.88,SSE,158,1.0,2.0,99,0.00,,,0.00,Wunderground v.1.13,2013-01-30 08:39:00,
2013-01-30 02:44:00,70.9,70.6,29.88,South,180,2.0,6.0,99,0.00,,,0.00,Wunderground v.1.13,2013-01-30 08:44:00,
2013-01-30 02:50:00,70.8,70.5,29.88,SSE,163,2.0,5.0,99,0.00,,,0.00,Wunderground v.1.13,2013-01-30 08:50:00,
2013-01-30 02:55:00,70.9,70.6,29.88,South,175,3.0,4.0,99,0.00,,,0.00,Wunderground v.1.13,2013-01-30 08:55:00,
2013-01-30 03:02:00,70.9,70.6,29.88,SSE,153,3.0,6.0,99,0.00,,,0.00,Wunderground v.1.13,2013-01-30 09:02:00,
2013-01-30 03:07:00,71.0,70.7,29.88,SSE,161,3.0,3.0,99,0.00,,,0.00,Wunderground v.1.13,2013-01-30 09:07:00,
2013-01-30 03:13:00,71.0,70.7,29.87,SSE,163,2.0,4.0,99,0.00,,,0.00,Wunderground v.1.13,2013-01-30 09:13:00,
2013-01-30 03:19:00,71.1,70.8,29.88,SSE,162,2.0,3.0,99,0.00,,,0.00,Wunderground v.1.13,2013-01-30 09:19:00,
2013-01-30 03:24:00,71.0,70.4,29.87,SE,135,2.0,6.0,98,0.00,,,0.00,Wunderground v.1.13,2013-01-30 09:24:00,
2013-01-30 03:30:00,71.1,70.5,29.87,SE,133,2.0,4.0,98,0.00,,,0.00,Wunderground v.1.13,2013-01-30 09:30:00,
2013-01-30 03:35:00,71.1,70.5,29.87,SSE,167,2.0,5.0,98,0.00,,,0.00,Wunderground v.1.13,2013-01-30 09:35:00,
2013-01-30 03:40:00,71.2,70.6,29.87,SSE,158,3.0,9.0,98,0.00,,,0.00,Wunderground v.1.13,2013-01-30 09:40:00,
2013-01-30 03:46:00,71.1,70.5,29.87,ESE,115,1.0,1.0,98,0.00,,,0.00,Wunderground v.1.13,2013-01-30 09:46:00,
2013-01-30 03:51:00,71.2,70.6,29.86,South,175,2.0,2.0,98,0.00,,,0.00,Wunderground v.1.13,2013-01-30 09:51:00,
2013-01-30 03:56:00,71.1,70.5,29.86,South,189,3.0,3.0,98,0.00,,,0.00,Wunderground v.1.13,2013-01-30 09:56:00,
2013-01-30 04:03:00,71.1,70.5,29.86,SE,144,2.0,5.0,98,0.00,,,0.00,Wunderground v.1.13,2013-01-30 10:03:00,
2013-01-30 04:08:00,71.0,70.4,29.86,SSE,167,2.0,7.0,98,0.00,,,0.00,Wunderground v.1.13,2013-01-30 10:08:00,
2013-01-30 04:15:00,71.0,70.4,29.85,SSE,167,2.0,2.0,98,0.00,,,0.00,Wunderground v.1.13,2013-01-30 10:15:00,
2013-01-30 04:20:00,71.0,70.4,29.85,SSW,195,1.0,1.0,98,0.00,,,0.00,Wunderground v.1.13,2013-01-30 10:20:00,
2013-01-30 04:26:00,70.9,70.3,29.84,SSW,205,2.0,2.0,98,0.00,,,0.00,Wunderground v.1.13,2013-01-30 10:26:00,
2013-01-30 04:31:00,71.0,70.4,29.84,East,99,2.0,2.0,98,0.00,,,0.00,Wunderground v.1.13,2013-01-30 10:31:00,
2013-01-30 04:36:00,71.0,70.4,29.83,South,173,2.0,6.0,98,0.00,,,0.00,Wunderground v.1.13,2013-01-30 10:36:00,
2013-01-30 04:42:00,71.0,70.4,29.83,SE,144,2.0,6.0,98,0.00,,,0.00,Wunderground v.1.13,2013-01-30 10:42:00,
2013-01-30 04:48:00,71.0,70.4,29.83,SSE,165,2.0,8.0,98,0.00,,,0.00,Wunderground v.1.13,2013-01-30 10:48:00,
2013-01-30 04:53:00,71.0,70.4,29.82,SSE,161,3.0,5.0,98,0.00,,,0.00,Wunderground v.1.13,2013-01-30 10:53:00,
2013-01-30 04:59:00,71.0,70.4,29.82,SSE,158,1.0,2.0,98,0.00,,,0.00,Wunderground v.1.13,2013-01-30 10:59:00,
2013-01-30 05:04:00,71.0,70.4,29.81,ESE,112,3.0,5.0,98,0.00,,,0.00,Wunderground v.1.13,2013-01-30 11:04:00,
2013-01-30 05:09:00,71.1,70.5,29.82,South,191,4.0,9.0,98,0.00,,,0.00,Wunderground v.1.13,2013-01-30 11:09:00,
2013-01-30 05:14:00,71.3,70.7,29.81,SSE,165,4.0,6.0,98,0.00,,,0.00,Wunderground v.1.13,2013-01-30 11:14:00,
2013-01-30 05:19:00,71.3,70.7,29.81,SSE,162,4.0,8.0,98,0.00,,,0.00,Wunderground v.1.13,2013-01-30 11:19:00,
2013-01-30 05:24:00,71.3,70.7,29.80,South,180,4.0,8.0,98,0.00,,,0.00,Wunderground v.1.13,2013-01-30 11:24:00,
2013-01-30 05:29:00,71.3,70.7,29.80,South,180,4.0,6.0,98,0.00,,,0.00,Wunderground v.1.13,2013-01-30 11:29:00,
2013-01-30 05:35:00,71.4,70.5,29.80,SW,215,4.0,7.0,97,0.00,,,0.00,Wunderground v.1.13,2013-01-30 11:35:00,
2013-01-30 05:40:00,71.5,70.6,29.79,ESE,117,4.0,5.0,97,0.00,,,0.00,Wunderground v.1.13,2013-01-30 11:40:00,
2013-01-30 05:45:00,71.5,70.6,29.79,South,184,4.0,4.0,97,0.00,,,0.00,Wunderground v.1.13,2013-01-30 11:45:00,
2013-01-30 05:50:00,71.4,70.5,29.79,ESE,115,3.0,3.0,97,0.00,,,0.00,Wunderground v.1.13,2013-01-30 11:50:00,
2013-01-30 05:55:00,71.3,70.4,29.79,South,180,3.0,4.0,97,0.00,,,0.00,Wunderground v.1.13,2013-01-30 11:55:00,
2013-01-30 06:01:00,71.3,70.4,29.80,South,178,3.0,5.0,97,0.00,,,0.00,Wunderground v.1.13,2013-01-30 12:01:00,
2013-01-30 06:07:00,71.3,70.4,29.81,SW,233,3.0,4.0,97,0.00,,,0.00,Wunderground v.1.13,2013-01-30 12:07:00,
2013-01-30 06:12:00,71.4,70.5,29.81,South,170,3.0,5.0,97,0.00,,,0.00,Wunderground v.1.13,2013-01-30 12:12:00,
2013-01-30 06:17:00,71.5,70.6,29.82,South,171,3.0,3.0,97,0.00,,,0.00,Wunderground v.1.13,2013-01-30 12:17:00,
2013-01-30 06:23:00,71.5,70.6,29.82,SE,143,3.0,5.0,97,0.00,,,0.00,Wunderground v.1.13,2013-01-30 12:23:00,
2013-01-30 06:29:00,71.6,70.7,29.82,SSW,207,4.0,4.0,97,0.00,,,0.00,Wunderground v.1.13,2013-01-30 12:29:00,
2013-01-30 06:34:00,71.6,70.4,29.82,South,180,3.0,8.0,96,0.00,,,0.00,Wunderground v.1.13,2013-01-30 12:34:00,
2013-01-30 06:39:00,71.6,70.4,29.82,SSE,158,7.0,13.0,96,0.00,,,0.00,Wunderground v.1.13,2013-01-30 12:39:00,
2013-01-30 06:44:00,71.5,70.3,29.82,South,175,3.0,4.0,96,0.00,,,0.00,Wunderground v.1.13,2013-01-30 12:44:00,
2013-01-30 06:49:00,71.6,70.4,29.81,South,176,3.0,9.0,96,0.00,,,0.00,Wunderground v.1.13,2013-01-30 12:49:00,
2013-01-30 06:55:00,71.5,70.3,29.81,SSW,198,3.0,3.0,96,0.00,,,0.00,Wunderground v.1.13,2013-01-30 12:55:00,
2013-01-30 07:00:00,71.6,70.4,29.81,South,169,4.0,4.0,96,0.00,,,0.00,Wunderground v.1.13,2013-01-30 13:00:00,
2013-01-30 07:05:00,71.6,70.4,29.81,ESE,122,3.0,3.0,96,0.00,,,0.00,Wunderground v.1.13,2013-01-30 13:05:00,
2013-01-30 07:11:00,71.6,70.4,29.81,South,182,2.0,3.0,96,0.00,,,0.00,Wunderground v.1.13,2013-01-30 13:11:00,
2013-01-30 07:16:00,71.7,70.5,29.81,South,173,3.0,6.0,96,0.00,,,0.00,Wunderground v.1.13,2013-01-30 13:16:00,
2013-01-30 07:21:00,71.9,70.7,29.80,SE,142,4.0,5.0,96,0.00,,,0.00,Wunderground v.1.13,2013-01-30 13:21:00,
2013-01-30 07:26:00,71.9,70.7,29.80,South,172,4.0,4.0,96,0.00,,,0.00,Wunderground v.1.13,2013-01-30 13:26:00,
2013-01-30 07:31:00,71.9,70.7,29.80,South,176,3.0,5.0,96,0.00,,,0.00,Wunderground v.1.13,2013-01-30 13:31:00,
2013-01-30 07:37:00,72.0,70.8,29.80,SSE,161,4.0,5.0,96,0.00,,,0.00,Wunderground v.1.13,2013-01-30 13:37:00,
2013-01-30 07:42:00,72.1,70.6,29.80,South,171,4.0,11.0,95,0.00,,,0.00,Wunderground v.1.13,2013-01-30 13:42:00,
2013-01-30 07:47:00,72.3,70.8,29.79,SSW,192,5.0,5.0,95,0.00,,,0.00,Wunderground v.1.13,2013-01-30 13:47:00,
2013-01-30 07:54:00,72.4,70.9,29.80,South,185,4.0,6.0,95,0.00,,,0.00,Wunderground v.1.13,2013-01-30 13:54:00,
2013-01-30 07:59:00,72.3,70.8,29.79,SSE,166,3.0,7.0,95,0.00,,,0.00,Wunderground v.1.13,2013-01-30 13:59:00,
2013-01-30 08:04:00,72.3,70.8,29.79,SSE,158,3.0,6.0,95,0.00,,,0.00,Wunderground v.1.13,2013-01-30 14:04:00,
2013-01-30 08:10:00,72.3,70.8,29.79,South,180,4.0,4.0,95,0.00,,,0.00,Wunderground v.1.13,2013-01-30 14:10:00,
2013-01-30 08:15:00,72.3,71.1,29.79,South,173,4.0,4.0,96,0.00,,,0.00,Wunderground v.1.13,2013-01-30 14:15:00,
2013-01-30 08:20:00,72.4,70.9,29.80,South,169,3.0,6.0,95,0.00,,,0.00,Wunderground v.1.13,2013-01-30 14:20:00,
2013-01-30 08:25:00,72.4,70.9,29.79,SE,134,3.0,3.0,95,0.00,,,0.00,Wunderground v.1.13,2013-01-30 14:25:00,
2013-01-30 08:31:00,72.5,71.0,29.80,SSE,163,3.0,7.0,95,0.00,,,0.00,Wunderground v.1.13,2013-01-30 14:31:00,
2013-01-30 08:36:00,72.7,71.2,29.79,South,178,4.0,6.0,95,0.00,,,0.00,Wunderground v.1.13,2013-01-30 14:36:00,
2013-01-30 08:42:00,73.0,71.5,29.80,SSE,159,5.0,5.0,95,0.00,,,0.00,Wunderground v.1.13,2013-01-30 14:42:00,
2013-01-30 08:47:00,73.0,71.2,29.80,South,184,5.0,5.0,94,0.00,,,0.00,Wunderground v.1.13,2013-01-30 14:47:00,
2013-01-30 08:54:00,73.0,71.2,29.79,South,180,4.0,11.0,94,0.00,,,0.00,Wunderground v.1.13,2013-01-30 14:54:00,
2013-01-30 08:59:00,73.1,71.3,29.80,South,176,4.0,11.0,94,0.00,,,0.00,Wunderground v.1.13,2013-01-30 14:59:00,
2013-01-30 09:04:00,73.0,71.2,29.80,WSW,253,4.0,9.0,94,0.00,,,0.00,Wunderground v.1.13,2013-01-30 15:04:00,
2013-01-30 09:09:00,73.0,71.2,29.79,South,180,2.0,5.0,94,0.00,,,0.00,Wunderground v.1.13,2013-01-30 15:09:00,
2013-01-30 09:14:00,73.0,71.2,29.79,South,180,3.0,7.0,94,0.00,,,0.00,Wunderground v.1.13,2013-01-30 15:14:00,
2013-01-30 09:19:00,73.0,71.2,29.79,South,180,6.0,10.0,94,0.00,,,0.00,Wunderground v.1.13,2013-01-30 15:19:00,
2013-01-30 09:24:00,73.1,71.3,29.78,SSE,158,3.0,9.0,94,0.00,,,0.00,Wunderground v.1.13,2013-01-30 15:24:00,
2013-01-30 09:30:00,73.3,71.5,29.78,SSW,197,5.0,5.0,94,0.00,,,0.01,Wunderground v.1.13,2013-01-30 15:30:00,
2013-01-30 09:35:00,73.3,71.5,29.79,SW,230,4.0,11.0,94,0.00,,,0.01,Wunderground v.1.13,2013-01-30 15:35:00,
2013-01-30 09:40:00,73.4,71.6,29.79,SSE,161,3.0,4.0,94,0.00,,,0.01,Wunderground v.1.13,2013-01-30 15:40:00,
2013-01-30 09:45:00,73.4,71.6,29.79,SSE,167,5.0,5.0,94,0.00,,,0.01,Wunderground v.1.13,2013-01-30 15:45:00,
2013-01-30 09:51:00,73.5,71.7,29.79,South,180,4.0,8.0,94,0.00,,,0.01,Wunderground v.1.13,2013-01-30 15:51:00,
2013-01-30 09:58:00,73.6,71.8,29.79,South,180,4.0,7.0,94,0.00,,,0.01,Wunderground v.1.13,2013-01-30 15:58:00,
2013-01-30 10:03:00,73.7,71.5,29.78,South,187,4.0,5.0,93,0.00,,,0.01,Wunderground v.1.13,2013-01-30 16:03:00,
2013-01-30 10:09:00,73.8,71.6,29.78,South,180,6.0,14.0,93,0.01,,,0.01,Wunderground v.1.13,2013-01-30 16:09:00,
2013-01-30 10:14:00,74.0,71.8,29.78,SE,135,5.0,15.0,93,0.00,,,0.01,Wunderground v.1.13,2013-01-30 16:14:00,
2013-01-30 10:19:00,74.2,72.0,29.78,West,262,5.0,9.0,93,0.00,,,0.01,Wunderground v.1.13,2013-01-30 16:19:00,
2013-01-30 10:24:00,74.1,71.9,29.78,SW,230,5.0,5.0,93,0.00,,,0.01,Wunderground v.1.13,2013-01-30 16:24:00,
2013-01-30 10:29:00,74.3,72.1,29.77,SE,132,4.0,7.0,93,0.00,,,0.01,Wunderground v.1.13,2013-01-30 16:29:00,
2013-01-30 10:34:00,74.6,72.1,29.77,South,175,5.0,8.0,92,0.00,,,0.01,Wunderground v.1.13,2013-01-30 16:34:00,
2013-01-30 10:39:00,74.6,72.1,29.77,South,191,6.0,9.0,92,0.00,,,0.01,Wunderground v.1.13,2013-01-30 16:39:00,
2013-01-30 10:44:00,74.5,72.0,29.77,SSW,200,4.0,5.0,92,0.00,,,0.01,Wunderground v.1.13,2013-01-30 16:44:00,
2013-01-30 10:49:00,74.5,72.0,29.77,SSE,158,3.0,9.0,92,0.00,,,0.01,Wunderground v.1.13,2013-01-30 16:49:00,
2013-01-30 10:54:00,74.6,72.1,29.76,South,180,4.0,7.0,92,0.00,,,0.01,Wunderground v.1.13,2013-01-30 16:54:00,
2013-01-30 10:59:00,74.6,72.1,29.75,SE,135,7.0,12.0,92,0.00,,,0.01,Wunderground v.1.13,2013-01-30 16:59:00,
2013-01-30 11:05:00,74.7,72.2,29.76,South,177,5.0,5.0,92,0.00,,,0.01,Wunderground v.1.13,2013-01-30 17:05:00,
2013-01-30 11:10:00,74.8,72.3,29.75,South,171,5.0,5.0,92,0.00,,,0.01,Wunderground v.1.13,2013-01-30 17:10:00,
2013-01-30 11:15:00,74.9,72.4,29.75,WSW,243,5.0,22.0,92,0.00,,,0.01,Wunderground v.1.13,2013-01-30 17:15:00,
2013-01-30 11:20:00,74.9,72.4,29.75,SE,143,5.0,5.0,92,0.00,,,0.01,Wunderground v.1.13,2013-01-30 17:20:00,
2013-01-30 11:26:00,74.8,72.3,29.75,SE,128,5.0,6.0,92,0.00,,,0.01,Wunderground v.1.13,2013-01-30 17:26:00,
2013-01-30 11:31:00,75.0,72.5,29.75,South,176,5.0,8.0,92,0.00,,,0.01,Wunderground v.1.13,2013-01-30 17:31:00,
2013-01-30 11:36:00,75.2,72.4,29.75,South,182,5.0,6.0,91,0.00,,,0.01,Wunderground v.1.13,2013-01-30 17:36:00,
2013-01-30 11:42:00,75.4,72.3,29.74,South,188,5.0,8.0,90,0.00,,,0.01,Wunderground v.1.13,2013-01-30 17:42:00,
2013-01-30 11:47:00,75.5,72.4,29.74,SE,131,6.0,10.0,90,0.00,,,0.01,Wunderground v.1.13,2013-01-30 17:47:00,
2013-01-30 11:52:00,75.6,72.5,29.73,South,171,5.0,6.0,90,0.00,,,0.01,Wunderground v.1.13,2013-01-30 17:52:00,
2013-01-30 11:57:00,75.6,72.5,29.72,SSW,199,4.0,8.0,90,0.00,,,0.01,Wunderground v.1.13,2013-01-30 17:57:00,
2013-01-30 12:02:00,75.7,72.2,29.72,South,170,5.0,6.0,89,0.00,,,0.01,Wunderground v.1.13,2013-01-30 18:02:00,
2013-01-30 12:07:00,75.7,72.6,29.72,South,185,6.0,11.0,90,0.00,,,0.01,Wunderground v.1.13,2013-01-30 18:07:00,
2013-01-30 12:12:00,76.1,72.6,29.71,SSE,155,7.0,7.0,89,0.00,,,0.01,Wunderground v.1.13,2013-01-30 18:12:00,
2013-01-30 12:18:00,76.7,73.2,29.71,SSW,195,6.0,6.0,89,0.00,,,0.01,Wunderground v.1.13,2013-01-30 18:18:00,
2013-01-30 12:24:00,76.9,73.4,29.70,South,182,6.0,11.0,89,0.00,,,0.01,Wunderground v.1.13,2013-01-30 18:24:00,
2013-01-30 12:29:00,76.9,72.7,29.70,South,184,6.0,7.0,87,0.00,,,0.01,Wunderground v.1.13,2013-01-30 18:29:00,
2013-01-30 12:34:00,76.8,73.0,29.69,SE,135,6.0,10.0,88,0.00,,,0.01,Wunderground v.1.13,2013-01-30 18:34:00,
2013-01-30 12:39:00,75.8,73.0,29.69,SSE,163,7.0,9.0,91,0.00,,,0.01,Wunderground v.1.13,2013-01-30 18:39:00,
2013-01-30 12:45:00,75.5,72.7,29.69,SSE,149,7.0,9.0,91,0.00,,,0.01,Wunderground v.1.13,2013-01-30 18:45:00,
2013-01-30 12:50:00,75.6,72.5,29.68,SW,232,6.0,7.0,90,0.00,,,0.01,Wunderground v.1.13,2013-01-30 18:50:00,
2013-01-30 12:56:00,75.9,72.4,29.68,SSW,202,6.0,11.0,89,0.00,,,0.01,Wunderground v.1.13,2013-01-30 18:56:00,
2013-01-30 13:02:00,76.1,72.3,29.68,South,182,5.0,8.0,88,0.00,,,0.01,Wunderground v.1.13,2013-01-30 19:02:00,
2013-01-30 13:07:00,76.1,72.6,29.69,SSE,159,4.0,9.0,89,0.00,,,0.01,Wunderground v.1.13,2013-01-30 19:07:00,
2013-01-30 13:12:00,76.1,72.6,29.68,SSE,165,4.0,5.0,89,0.00,,,0.01,Wunderground v.1.13,2013-01-30 19:12:00,
2013-01-30 13:19:00,76.1,72.3,29.67,SSE,158,7.0,13.0,88,0.00,,,0.01,Wunderground v.1.13,2013-01-30 19:19:00,
2013-01-30 13:24:00,76.4,72.2,29.66,South,180,11.0,23.0,87,0.00,,,0.01,Wunderground v.1.13,2013-01-30 19:24:00,
2013-01-30 13:31:00,76.5,72.3,29.67,SSW,200,7.0,7.0,87,0.00,,,0.01,Wunderground v.1.13,2013-01-30 19:31:00,
2013-01-30 13:36:00,76.2,72.4,29.67,South,172,5.0,5.0,88,0.00,,,0.01,Wunderground v.1.13,2013-01-30 19:36:00,
2013-01-30 13:41:00,76.2,72.0,29.66,ESE,121,4.0,4.0,87,0.00,,,0.01,Wunderground v.1.13,2013-01-30 19:41:00,
2013-01-30 13:46:00,76.6,72.4,29.67,SW,216,5.0,11.0,87,0.00,,,0.01,Wunderground v.1.13,2013-01-30 19:46:00,
2013-01-30 13:51:00,76.5,71.7,29.66,SSW,195,5.0,5.0,85,0.00,,,0.01,Wunderground v.1.13,2013-01-30 19:51:00,
2013-01-30 13:57:00,76.1,71.9,29.66,SSW,199,6.0,6.0,87,0.00,,,0.01,Wunderground v.1.13,2013-01-30 19:57:00,
2013-01-30 14:03:00,74.6,71.8,29.65,South,187,7.0,8.0,91,0.00,,,0.01,Wunderground v.1.13,2013-01-30 20:03:00,
2013-01-30 14:07:00,73.9,71.7,29.65,SW,218,7.0,7.0,93,1.54,,,0.03,Wunderground v.1.13,2013-01-30 20:07:00,
2013-01-30 14:13:00,73.3,71.5,29.65,SSE,150,5.0,6.0,94,0.13,,,0.05,Wunderground v.1.13,2013-01-30 20:13:00,
2013-01-30 14:19:00,72.7,71.2,29.65,SSW,213,4.0,4.0,95,0.94,,,0.08,Wunderground v.1.13,2013-01-30 20:19:00,
2013-01-30 14:24:00,72.4,71.2,29.65,West,266,5.0,8.0,96,0.12,,,0.09,Wunderground v.1.13,2013-01-30 20:24:00,
2013-01-30 14:29:00,72.2,71.0,29.66,West,266,5.0,8.0,96,0.06,,,0.09,Wunderground v.1.13,2013-01-30 20:29:00,
2013-01-30 14:34:00,68.2,64.5,29.70,West,277,6.0,10.0,88,0.80,,,0.27,Wunderground v.1.13,2013-01-30 20:34:00,
2013-01-30 14:40:00,64.8,62.1,29.70,West,268,6.0,6.0,91,0.13,,,0.28,Wunderground v.1.13,2013-01-30 20:40:00,
2013-01-30 14:46:00,63.2,61.1,29.71,WNW,284,5.0,6.0,93,0.06,,,0.28,Wunderground v.1.13,2013-01-30 20:46:00,
2013-01-30 14:51:00,62.1,60.4,29.73,WNW,295,5.0,15.0,94,0.04,,,0.28,Wunderground v.1.13,2013-01-30 20:51:00,
2013-01-30 14:57:00,60.8,58.8,29.73,WNW,282,6.0,15.0,93,0.00,,,0.28,Wunderground v.1.13,2013-01-30 20:57:00,
2013-01-30 15:02:00,59.1,56.5,29.75,WSW,255,8.0,8.0,91,0.00,,,0.28,Wunderground v.1.13,2013-01-30 21:02:00,
2013-01-30 15:08:00,58.3,55.7,29.75,West,269,7.0,10.0,91,0.00,,,0.28,Wunderground v.1.13,2013-01-30 21:08:00,
2013-01-30 15:14:00,57.6,55.3,29.76,West,266,6.0,8.0,92,0.00,,,0.28,Wunderground v.1.13,2013-01-30 21:14:00,
2013-01-30 15:19:00,57.3,55.3,29.77,WNW,293,7.0,14.0,93,0.21,,,0.28,Wunderground v.1.13,2013-01-30 21:19:00,
2013-01-30 15:25:00,56.9,54.9,29.79,West,277,5.0,7.0,93,0.00,,,0.28,Wunderground v.1.13,2013-01-30 21:25:00,
2013-01-30 15:30:00,56.5,54.8,29.78,West,280,4.0,8.0,94,0.00,,,0.28,Wunderground v.1.13,2013-01-30 21:30:00,
2013-01-30 15:35:00,56.4,54.7,29.78,West,280,4.0,9.0,94,0.00,,,0.28,Wunderground v.1.13,2013-01-30 21:35:00,
2013-01-30 15:41:00,56.2,54.5,29.78,West,273,4.0,4.0,94,0.00,,,0.29,Wunderground v.1.13,2013-01-30 21:41:00,
2013-01-30 15:46:00,56.0,54.3,29.78,West,269,3.0,3.0,94,0.00,,,0.29,Wunderground v.1.13,2013-01-30 21:46:00,
2013-01-30 15:51:00,55.7,53.7,29.78,WNW,294,3.0,3.0,93,0.00,,,0.29,Wunderground v.1.13,2013-01-30 21:51:00,
2013-01-30 15:56:00,55.6,53.9,29.77,WSW,242,2.0,4.0,94,0.00,,,0.29,Wunderground v.1.13,2013-01-30 21:56:00,
2013-01-30 16:01:00,55.3,53.3,29.78,West,272,1.0,2.0,93,0.00,,,0.29,Wunderground v.1.13,2013-01-30 22:01:00,
2013-01-30 16:07:00,55.1,53.1,29.78,West,260,1.0,2.0,93,0.00,,,0.29,Wunderground v.1.13,2013-01-30 22:07:00,
2013-01-30 16:12:00,55.0,53.3,29.79,WSW,252,1.0,4.0,94,0.00,,,0.29,Wunderground v.1.13,2013-01-30 22:12:00,
2013-01-30 16:17:00,54.8,52.8,29.80,WSW,254,2.0,4.0,93,0.00,,,0.29,Wunderground v.1.13,2013-01-30 22:17:00,
2013-01-30 16:23:00,54.4,52.1,29.79,West,272,2.0,5.0,92,0.00,,,0.29,Wunderground v.1.13,2013-01-30 22:23:00,
2013-01-30 16:28:00,54.2,51.9,29.79,West,271,2.0,2.0,92,0.00,,,0.29,Wunderground v.1.13,2013-01-30 22:28:00,
2013-01-30 16:34:00,54.0,52.0,29.80,WSW,248,1.0,4.0,93,0.00,,,0.30,Wunderground v.1.13,2013-01-30 22:34:00,
2013-01-30 16:39:00,53.8,51.8,29.79,WSW,248,1.0,3.0,93,0.00,,,0.30,Wunderground v.1.13,2013-01-30 22:39:00,
2013-01-30 16:44:00,53.7,52.0,29.79,N/A,-737280,0.0,0.0,94,0.01,,,0.30,Wunderground v.1.13,2013-01-30 22:44:00,
2013-01-30 16:50:00,53.7,52.3,29.79,WSW,248,0.0,0.0,95,0.00,,,0.30,Wunderground v.1.13,2013-01-30 22:50:00,
2013-01-30 16:55:00,53.6,52.2,29.81,WSW,248,0.0,0.0,95,0.00,,,0.30,Wunderground v.1.13,2013-01-30 22:55:00,
2013-01-30 17:00:00,53.5,52.1,29.83,ESE,109,0.0,2.0,95,0.00,,,0.30,Wunderground v.1.13,2013-01-30 23:00:00,
2013-01-30 17:06:00,53.2,51.8,29.84,West,261,1.0,1.0,95,0.00,,,0.31,Wunderground v.1.13,2013-01-30 23:06:00,
2013-01-30 17:11:00,53.0,51.3,29.82,WSW,245,1.0,6.0,94,0.00,,,0.31,Wunderground v.1.13,2013-01-30 23:11:00,
2013-01-30 17:16:00,52.5,50.5,29.81,WSW,242,2.0,2.0,93,0.00,,,0.31,Wunderground v.1.13,2013-01-30 23:16:00,
2013-01-30 17:21:00,52.2,50.2,29.81,WSW,238,2.0,2.0,93,0.00,,,0.31,Wunderground v.1.13,2013-01-30 23:21:00,
2013-01-30 17:26:00,51.9,49.9,29.82,WSW,250,1.0,1.0,93,0.00,,,0.31,Wunderground v.1.13,2013-01-30 23:26:00,
2013-01-30 17:31:00,51.6,49.6,29.82,WSW,251,1.0,4.0,93,0.00,,,0.31,Wunderground v.1.13,2013-01-30 23:31:00,
2013-01-30 17:36:00,51.5,49.8,29.81,WSW,252,1.0,1.0,94,0.00,,,0.31,Wunderground v.1.13,2013-01-30 23:36:00,
2013-01-30 17:42:00,51.4,49.7,29.82,WSW,252,1.0,2.0,94,0.00,,,0.31,Wunderground v.1.13,2013-01-30 23:42:00,
2013-01-30 17:47:00,51.4,50.0,29.81,WSW,252,1.0,1.0,95,0.00,,,0.31,Wunderground v.1.13,2013-01-30 23:47:00,
2013-01-30 17:52:00,51.4,50.0,29.81,WSW,252,0.0,2.0,95,0.00,,,0.31,Wunderground v.1.13,2013-01-30 23:52:00,
2013-01-30 17:57:00,51.4,50.0,29.82,West,259,1.0,1.0,95,0.00,,,0.31,Wunderground v.1.13,2013-01-30 23:57:00,
2013-01-30 18:02:00,51.4,50.0,29.81,West,259,0.0,2.0,95,0.00,,,0.31,Wunderground v.1.13,2013-01-31 00:02:00,
2013-01-30 18:07:00,51.5,50.1,29.82,West,259,0.0,0.0,95,0.00,,,0.31,Wunderground v.1.13,2013-01-31 00:07:00,
2013-01-30 18:13:00,51.6,50.2,29.84,West,259,0.0,0.0,95,0.00,,,0.31,Wunderground v.1.13,2013-01-31 00:13:00,
2013-01-30 18:18:00,51.6,50.2,29.85,West,261,0.0,3.0,95,0.00,,,0.32,Wunderground v.1.13,2013-01-31 00:18:00,
2013-01-30 18:24:00,51.6,50.5,29.83,West,261,0.0,4.0,96,0.00,,,0.32,Wunderground v.1.13,2013-01-31 00:24:00,
2013-01-30 18:29:00,51.6,50.2,29.83,West,261,0.0,6.0,95,0.00,,,0.32,Wunderground v.1.13,2013-01-31 00:29:00,
2013-01-30 18:34:00,51.6,50.5,29.84,N/A,-737280,0.0,0.0,96,0.01,,,0.32,Wunderground v.1.13,2013-01-31 00:34:00,
2013-01-30 18:40:00,51.8,50.7,29.84,West,261,0.0,0.0,96,0.00,,,0.32,Wunderground v.1.13,2013-01-31 00:40:00,
2013-01-30 18:45:00,51.9,50.8,29.88,West,260,0.0,1.0,96,0.00,,,0.32,Wunderground v.1.13,2013-01-31 00:45:00,
2013-01-30 18:50:00,52.0,50.9,29.86,West,265,1.0,1.0,96,0.00,,,0.32,Wunderground v.1.13,2013-01-31 00:50:00,
2013-01-30 18:55:00,52.1,51.0,29.86,West,265,1.0,1.0,96,0.00,,,0.33,Wunderground v.1.13,2013-01-31 00:55:00,
2013-01-30 19:00:00,52.2,51.1,29.86,West,261,0.0,3.0,96,0.00,,,0.33,Wunderground v.1.13,2013-01-31 01:00:00,
2013-01-30 19:06:00,52.2,51.1,29.87,West,261,0.0,0.0,96,0.00,,,0.33,Wunderground v.1.13,2013-01-31 01:06:00,
2013-01-30 19:11:00,52.3,51.5,29.88,West,261,0.0,1.0,97,0.00,,,0.33,Wunderground v.1.13,2013-01-31 01:11:00,
2013-01-30 19:16:00,52.4,51.6,29.87,West,259,0.0,0.0,97,0.00,,,0.33,Wunderground v.1.13,2013-01-31 01:16:00,
2013-01-30 19:22:00,52.5,51.7,29.88,West,262,1.0,4.0,97,0.00,,,0.34,Wunderground v.1.13,2013-01-31 01:22:00,
2013-01-30 19:27:00,52.6,51.8,29.90,West,262,0.0,1.0,97,0.00,,,0.34,Wunderground v.1.13,2013-01-31 01:27:00,
2013-01-30 19:32:00,52.7,51.9,29.90,West,262,0.0,0.0,97,0.00,,,0.34,Wunderground v.1.13,2013-01-31 01:32:00,
2013-01-30 19:38:00,52.8,52.0,29.90,West,261,0.0,1.0,97,0.00,,,0.34,Wunderground v.1.13,2013-01-31 01:38:00,
2013-01-30 19:43:00,52.9,52.1,29.90,West,261,1.0,2.0,97,0.00,,,0.34,Wunderground v.1.13,2013-01-31 01:43:00,
2013-01-30 19:48:00,53.0,52.2,29.90,West,261,0.0,0.0,97,0.00,,,0.34,Wunderground v.1.13,2013-01-31 01:48:00,
2013-01-30 19:54:00,53.1,52.3,29.90,West,263,0.0,3.0,97,0.00,,,0.34,Wunderground v.1.13,2013-01-31 01:54:00,
2013-01-30 19:59:00,53.1,52.3,29.90,West,263,0.0,0.0,97,0.00,,,0.34,Wunderground v.1.13,2013-01-31 01:59:00,
2013-01-30 20:04:00,53.0,52.2,29.91,West,263,0.0,0.0,97,0.00,,,0.34,Wunderground v.1.13,2013-01-31 02:04:00,
2013-01-30 20:09:00,52.9,52.1,29.91,WSW,257,0.0,3.0,97,0.00,,,0.34,Wunderground v.1.13,2013-01-31 02:09:00,
2013-01-30 20:15:00,52.8,52.0,29.91,WSW,246,1.0,1.0,97,0.00,,,0.34,Wunderground v.1.13,2013-01-31 02:15:00,
2013-01-30 20:20:00,52.7,51.6,29.92,WSW,254,1.0,3.0,96,0.00,,,0.34,Wunderground v.1.13,2013-01-31 02:20:00,
2013-01-30 20:25:00,52.6,51.5,29.92,WSW,247,1.0,3.0,96,0.00,,,0.34,Wunderground v.1.13,2013-01-31 02:25:00,
2013-01-30 20:31:00,52.4,51.0,29.92,WSW,257,2.0,4.0,95,0.00,,,0.34,Wunderground v.1.13,2013-01-31 02:31:00,
2013-01-30 20:36:00,52.3,50.0,29.93,WNW,296,4.0,6.0,92,0.00,,,0.34,Wunderground v.1.13,2013-01-31 02:36:00,
2013-01-30 20:42:00,52.3,49.5,29.93,West,276,4.0,4.0,90,0.00,,,0.34,Wunderground v.1.13,2013-01-31 02:42:00,
2013-01-30 20:47:00,52.1,48.3,29.94,WNW,282,4.0,6.0,87,0.00,,,0.34,Wunderground v.1.13,2013-01-31 02:47:00,
2013-01-30 20:52:00,52.0,48.9,29.94,WNW,291,3.0,3.0,89,0.00,,,0.34,Wunderground v.1.13,2013-01-31 02:52:00,
2013-01-30 20:57:00,51.7,48.3,29.94,WNW,287,2.0,2.0,88,0.00,,,0.34,Wunderground v.1.13,2013-01-31 02:57:00,
2013-01-30 21:02:00,51.4,47.7,29.95,West,263,2.0,3.0,87,0.00,,,0.34,Wunderground v.1.13,2013-01-31 03:02:00,
2013-01-30 21:08:00,51.1,48.0,29.96,WSW,253,2.0,4.0,89,0.00,,,0.34,Wunderground v.1.13,2013-01-31 03:08:00,
2013-01-30 21:13:00,50.8,47.7,29.96,West,259,1.0,2.0,89,0.00,,,0.34,Wunderground v.1.13,2013-01-31 03:13:00,
2013-01-30 21:18:00,50.6,47.8,29.96,West,269,1.0,4.0,90,0.00,,,0.34,Wunderground v.1.13,2013-01-31 03:18:00,
2013-01-30 21:24:00,50.3,47.2,29.97,West,271,1.0,1.0,89,0.00,,,0.34,Wunderground v.1.13,2013-01-31 03:24:00,
2013-01-30 21:29:00,50.0,47.5,29.97,West,276,1.0,3.0,91,0.00,,,0.34,Wunderground v.1.13,2013-01-31 03:29:00,
2013-01-30 21:34:00,49.6,46.2,29.98,WNW,293,3.0,8.0,88,0.00,,,0.34,Wunderground v.1.13,2013-01-31 03:34:00,
2013-01-30 21:40:00,49.8,45.5,29.98,West,279,3.0,4.0,85,0.00,,,0.34,Wunderground v.1.13,2013-01-31 03:40:00,
2013-01-30 21:45:00,50.3,45.0,29.99,NW,319,4.0,4.0,82,0.00,,,0.34,Wunderground v.1.13,2013-01-31 03:45:00,
2013-01-30 21:50:00,50.3,45.6,29.99,WNW,298,3.0,3.0,84,0.00,,,0.34,Wunderground v.1.13,2013-01-31 03:50:00,
2013-01-30 21:55:00,50.0,44.7,30.00,WNW,295,3.0,6.0,82,0.00,,,0.34,Wunderground v.1.13,2013-01-31 03:55:00,
2013-01-30 22:02:00,49.9,44.0,30.00,WNW,296,4.0,5.0,80,0.00,,,0.34,Wunderground v.1.13,2013-01-31 04:02:00,
2013-01-30 22:07:00,49.7,43.8,30.01,NNW,327,4.0,6.0,80,0.00,,,0.34,Wunderground v.1.13,2013-01-31 04:07:00,
2013-01-30 22:12:00,49.5,43.6,30.01,WNW,284,5.0,9.0,80,0.00,,,0.34,Wunderground v.1.13,2013-01-31 04:12:00,
2013-01-30 22:18:00,49.2,43.3,30.01,North,351,4.0,5.0,80,0.00,,,0.34,Wunderground v.1.13,2013-01-31 04:18:00,
2013-01-30 22:23:00,49.1,43.5,30.02,West,275,3.0,5.0,81,0.00,,,0.34,Wunderground v.1.13,2013-01-31 04:23:00,
2013-01-30 22:28:00,48.8,43.2,30.02,West,271,3.0,4.0,81,0.00,,,0.34,Wunderground v.1.13,2013-01-31 04:28:00,
2013-01-30 22:33:00,48.5,42.6,30.03,NW,311,3.0,7.0,80,0.00,,,0.34,Wunderground v.1.13,2013-01-31 04:33:00,
2013-01-30 22:38:00,48.3,42.7,30.03,WNW,294,3.0,8.0,81,0.00,,,0.34,Wunderground v.1.13,2013-01-31 04:38:00,
2013-01-30 22:44:00,48.2,41.3,30.04,WNW,291,5.0,9.0,77,0.00,,,0.34,Wunderground v.1.13,2013-01-31 04:44:00,
2013-01-30 22:50:00,48.1,40.9,30.04,WNW,284,5.0,5.0,76,0.00,,,0.34,Wunderground v.1.13,2013-01-31 04:50:00,
2013-01-30 22:55:00,47.8,40.6,30.04,West,264,4.0,4.0,76,0.00,,,0.34,Wunderground v.1.13,2013-01-31 04:55:00,
2013-01-30 23:00:00,47.6,40.4,30.05,West,264,3.0,3.0,76,0.00,,,0.34,Wunderground v.1.13,2013-01-31 05:00:00,
2013-01-30 23:03:00,47.5,40.0,30.05,WNW,285,3.0,5.0,75,0.00,,,0.34,Wunderground v.1.13,2013-01-31 05:03:00,
2013-01-30 23:04:00,47.5,40.0,30.05,WNW,293,1.0,4.0,75,0.00,,,0.34,Wunderground v.1.13,2013-01-31 05:04:00,
2013-01-30 23:10:00,47.2,39.7,30.05,WNW,290,3.0,4.0,75,0.00,,,0.34,Wunderground v.1.13,2013-01-31 05:10:00,
2013-01-30 23:11:00,47.2,40.0,30.06,West,267,3.0,6.0,76,0.00,,,0.34,Wunderground v.1.13,2013-01-31 05:11:00,
2013-01-30 23:16:00,46.9,39.0,30.06,WNW,286,2.0,2.0,74,0.00,,,0.34,Wunderground v.1.13,2013-01-31 05:16:00,
2013-01-30 23:22:00,46.7,38.1,30.06,WNW,284,2.0,2.0,72,0.00,,,0.34,Wunderground v.1.13,2013-01-31 05:22:00,
2013-01-30 23:26:00,46.7,38.1,30.06,NW,321,2.0,4.0,72,0.00,,,0.34,Wunderground v.1.13,2013-01-31 05:26:00,
2013-01-30 23:32:00,46.4,37.9,30.06,West,277,3.0,5.0,72,0.00,,,0.34,Wunderground v.1.13,2013-01-31 05:32:00,
2013-01-30 23:38:00,46.3,37.8,30.07,West,281,3.0,4.0,72,0.00,,,0.34,Wunderground v.1.13,2013-01-31 05:38:00,
2013-01-30 23:43:00,46.2,38.0,30.07,WNW,298,3.0,3.0,73,0.00,,,0.34,Wunderground v.1.13,2013-01-31 05:43:00,
2013-01-30 23:49:00,46.0,38.5,30.07,NNW,338,2.0,4.0,75,0.00,,,0.34,Wunderground v.1.13,2013-01-31 05:49:00,
2013-01-30 23:54:00,45.7,38.2,30.07,WNW,294,2.0,4.0,75,0.00,,,0.34,Wunderground v.1.13,2013-01-31 05:54:00,
2013-01-30 23:59:00,45.5,36.6,30.07,NNW,340,2.0,7.0,71,0.00,,,0.34,Wunderground v.1.13,2013-01-31 05:59:00,